Regional Weather Roundup
Issued by NWS

Home | Current Version | Previous Version | Graphics & Text | Print | Product List | Glossary On
Versions: 1 2 3 4 5 6 7 8 9 10 11 12 13 14 15 16 17 18 19 20 21 22 23 24 25 26 27 28 29 30 31 32 33 34 35 36 37 38 39 40 41 42 43 44 45 46 47 48 49 50
417
ASUS43 KDTX 211810
RWRMI
MICHIGAN HOURLY REGIONAL WEATHER ROUNDUP
NATIONAL WEATHER SERVICE DETROIT/PONTIAC MI
200 PM EDT FRI JUL 21 2017

NOTE: "FAIR" INDICATES FEW OR NO CLOUDS BELOW 12,000 FEET WITH NO
SIGNIFICANT WEATHER AND/OR OBSTRUCTION TO VISIBILITY.

MIZ047>049-052>055-059>063-066>070-074>076-081>083-211900-
SOUTHEAST LOWER MICHIGAN

CITY           SKY/WX    TMP DP  RH WIND       PRES   REMARKS
ADRIAN         MOSUNNY   85  64  49 SE5       30.00F
6HR MIN TEMP:  71; 6HR MAX TEMP:  86;

ALMA           MOSUNNY   84  64  50 S6        29.99S
ANN ARBOR      MOSUNNY   86  67  52 E6        29.99F
BAD AXE        SUNNY     82  62  50 W3        29.99S
6HR MIN TEMP:  68; 6HR MAX TEMP:  83;

CARO           CLOUDY    85  64  48 W6        29.98S
DETROIT CITY   SUNNY     84  66  54 SE7       29.98F
6HR MIN TEMP:  76; 6HR MAX TEMP:  85;

DETROIT        PTSUNNY   86  68  54 SW5       29.98F
6HR MIN TEMP:  75; 6HR MAX TEMP:  86;

FLINT          CLOUDY    83  64  52 W3        29.99F
6HR MIN TEMP:  71; 6HR MAX TEMP:  85;

GROSSE ILE     SUNNY     84  66  53 E3        29.97F
6HR MIN TEMP:  75; 6HR MAX TEMP:  85;

HILLSDALE      MOSUNNY   82  63  51 E6        30.01F
HOWELL         MOSUNNY   83  65  54 CALM      30.00F
6HR MIN TEMP:  68; 6HR MAX TEMP:  83;


CITY           SKY/WX    TMP DP  RH WIND       PRES   REMARKS
JACKSON        SUNNY     87  62  43 VRB5      30.00F
6HR MIN TEMP:  67; 6HR MAX TEMP:  87;

LAMBERTVILLE   MOSUNNY   84  67  57 N3        29.98S
6HR MIN TEMP:  71; 6HR MAX TEMP:  84;

LANSING        CLOUDY    84  64  50 N3        30.01S
6HR MIN TEMP:  68; 6HR MAX TEMP:  85;

LAPEER         FAIR      84  64  51 S6        30.00S
6HR MIN TEMP:  69; 6HR MAX TEMP:  84;

MASON          CLOUDY    81  66  59 CALM      30.01S
MONROE         MOSUNNY   85  68  57 SE7       29.98S
6HR MIN TEMP:  73; 6HR MAX TEMP:  85;

MT. CLEMENS    PTSUNNY   83  68  60 E6        29.97F
6HR MIN TEMP:  74; 6HR MAX TEMP:  83;

PONTIAC        PTSUNNY   84  63  49 E6        29.98F
6HR MIN TEMP:  73; 6HR MAX TEMP:  85;

PORT HOPE        N/A     76  64  66 E3        29.98S
6HR MIN TEMP:  70; 6HR MAX TEMP:  77;

PORT HURON     PTSUNNY   82  63  51 CALM      29.99S
TRI CITIES     MOSUNNY   85  68  56 W9        29.99S
6HR MIN TEMP:  70; 6HR MAX TEMP:  85;

MIDLAND        FAIR      86  66  52 SW7       29.97F
6HR MIN TEMP:  66; 6HR MAX TEMP:  86;

TROY           MOSUNNY   85  60  42 E3        30.00F
SAGINAW HB     CLOUDY    82  64  54 SW5       29.98F
$$
MIZ043>046-050>051-056>058-064>065-071>073-077>080-211900-
SOUTHWEST LOWER MICHIGAN

CITY           SKY/WX    TMP DP  RH WIND       PRES   REMARKS
BATTLE CREEK   PTSUNNY   85  67  54 S5        30.01F
6HR MIN TEMP:  68; 6HR MAX TEMP:  85; 6HR PCP: TRACE;

BENTON HARBOR  MOSUNNY   85  68  56 S6        29.99F
6HR MIN TEMP:  69; 6HR MAX TEMP:  85;

BIG RAPIDS     PTSUNNY   88  55  33 SW10      29.98F
6HR MIN TEMP:  63; 6HR MAX TEMP:  88;

COLDWATER      SUNNY     83  67  57 SE5       30.01S
6HR MIN TEMP:  67; 6HR MAX TEMP:  83;

FREMONT        FAIR      88  63  43 W5        29.98S
HOLLAND        CLOUDY    84  68  58 CALM      30.01F
6HR MIN TEMP:  66; 6HR MAX TEMP:  84;

GRAND RAPIDS   CLOUDY    84  70  62 SE6       30.00S
6HR MIN TEMP:  66; 6HR MAX TEMP:  84;

IONIA          FAIR      82  65  57 S3        30.00S
6HR MIN TEMP:  68; 6HR MAX TEMP:  82;

KALAMAZOO      CLOUDY    85  63  47 VRB3      30.01S
6HR MIN TEMP:  67; 6HR MAX TEMP:  86;

LUDINGTON      MOSUNNY   81  68  64 W3        29.97F
6HR MIN TEMP:  65; 6HR MAX TEMP:  83;

MARSHALL       CLOUDY    83  67  58 CALM      30.00F
6HR MIN TEMP:  67; 6HR MAX TEMP:  85;

MOUNT PLEASANT CLOUDY    88  63  43 W7        29.97F
6HR MIN TEMP:  71; 6HR MAX TEMP:  88;

MUSKEGON       CLOUDY    83  70  64 SW6       29.99F
6HR MIN TEMP:  70; 6HR MAX TEMP:  86;

SOUTH HAVEN    MOSUNNY   83  73  72 NW3       30.00F
$$
MIZ016>042-211900-
NORTHERN LOWER MICHIGAN

CITY           SKY/WX    TMP DP  RH WIND       PRES   REMARKS
ALPENA         SUNNY     86  60  41 W8        29.96F
6HR MIN TEMP:  65; 6HR MAX TEMP:  87;

BEAVER ISLAND  MOSUNNY   76  66  71 W8        29.99S
6HR MIN TEMP:  64; 6HR MAX TEMP:  77;

BELLAIRE       MOSUNNY   83  60  45 W7        29.98R
6HR MIN TEMP:  62; 6HR MAX TEMP:  84;

CADILLAC       SUNNY     87  58  38 W7        29.99F
CHARLEVOIX     CLOUDY    75  68  77 W12       30.02R
6HR MIN TEMP:  65; 6HR MAX TEMP:  82;

FRANKFORT      CLOUDY    80  67  65 CALM      29.98S
GAYLORD        SUNNY     84  54  35 W7        30.00R
6HR MIN TEMP:  62; 6HR MAX TEMP:  85;

GRAYLING       SUNNY     85  55  35 SW6       29.99F
6HR MIN TEMP:  64; 6HR MAX TEMP:  86;

HARBOR SPRINGS SUNNY     77  66  70 W6        29.99R
HOUGHTON LAKE  SUNNY     84  61  45 VRB3      30.00S
6HR MIN TEMP:  65; 6HR MAX TEMP:  84;

MANISTEE       CLOUDY    83  66  56 W7        29.97F
OSCODA         SUNNY     83  60  45 SE8       29.96S
6HR MIN TEMP:  67; 6HR MAX TEMP:  84;

PELLSTON       SUNNY     83  62  49 W12       29.99R
6HR MIN TEMP:  60; 6HR MAX TEMP:  84;

ROGERS CITY    SUNNY     74  64  70 NE5       29.98R
TRAVERSE CITY  CLOUDY    87  62  43 NW7       29.95F
6HR MIN TEMP:  69; 6HR MAX TEMP:  87;

$$
MIZ007>008-015-211900-
EASTERN UPPER MICHIGAN

CITY           SKY/WX    TMP DP  RH WIND       PRES   REMARKS
KINROSS        PTSUNNY   77  63  61 SW8       29.97R
6HR MIN TEMP:  61; 6HR MAX TEMP:  79;

MACKINAC ISLAN MOSUNNY   74  67  79 W13       29.98S
6HR MIN TEMP:  66; 6HR MAX TEMP:  75;

NEWBERRY       CLOUDY    76  66  71 W8        29.97F
6HR MIN TEMP:  62; 6HR MAX TEMP:  76;

S. S. MARIE    SUNNY     81  60  48 NW10      29.95S
6HR MIN TEMP:  65; 6HR MAX TEMP:  81;

MUNISING         N/A     70  65  84 N7        29.97F
6HR MIN TEMP:  62; 6HR MAX TEMP:  74;

$$
MIZ004>006-011>014-085-211900-
CENTRAL UPPER MICHIGAN

CITY           SKY/WX    TMP DP  RH WIND       PRES   REMARKS
MANISTIQUE     PTSUNNY   79  67  65 S3        29.97S
6HR MIN TEMP:  62; 6HR MAX TEMP:  81;

ESCANABA       CLOUDY    79  69  71 S6        29.96F
6HR MIN TEMP:  63; 6HR MAX TEMP:  83;

MENOMINEE      PTSUNNY   83  68  60 S5        29.96F
6HR MIN TEMP:  66; 6HR MAX TEMP:  83;

SAWYER-GWINN   SUNNY     79  57  47 W5        30.00F
$$
MIZ001>003-009>011-084-211900-
WESTERN UPPER MICHIGAN

CITY           SKY/WX    TMP DP  RH WIND       PRES   REMARKS
IRON MOUNTAIN  MOSUNNY   85  62  46 S6        29.96F
6HR MIN TEMP:  62; 6HR MAX TEMP:  85;

HOUGHTON       CLOUDY    73  57  57 CALM      29.99R
6HR MIN TEMP:  62; 6HR MAX TEMP:  74;

COPPER HARBOR    N/A     65  54  67 CALM      29.98R
6HR MIN TEMP:  57; 6HR MAX TEMP:  66;

IRONWOOD       CLOUDY    76  68  76 NE5       29.97F
6HR MIN TEMP:  61; 6HR MAX TEMP:  78;

$$

ABBREVIATIONS USED IN REMARKS
   TC - TEMPERATURE IN CELSIUS
  WCI - WIND CHILL INDEX
   HX - HEAT INDEX
  VSB - VISIBILITY





USA.gov is the U.S. government's official web portal to all federal, state and local government web resources and services.